Montreal Mirabel, Quebec

11:54 PM EDT on June 23, 2017 (GMT -0400)
Montreal Mirabel

Weather History for CYMX - December, 2012

Change the Weather History Date:

Monday, December 10, 2012

  Actual Average Record
Temperature  
Mean Temperature 26 °F -  
Max Temperature 33 °F 28 °F 48 °F (2015)
Min Temperature 19 °F 16 °F -2 °F (2000)
Degree Days  
Heating Degree Days 39    
Moisture  
Dew Point 26 °F    
Average Humidity 93    
Maximum Humidity 100    
Minimum Humidity 80    
Precipitation  
Precipitation 0.00 in - - ()
Sea Level Pressure  
Sea Level Pressure 29.67 in    
Wind  
Wind Speed 9 mph ()    
Max Wind Speed 16 mph    
Max Gust Speed 25 mph    
Visibility 3.4 miles    
Events Rain , Snow    
Averages and records for this station are not official NWS values.
T = Trace of Precipitation, MM = Missing Value Source: Averaged Metar Reports

Daily Weather History Graph

Daily Weather History Graph

Search for Another Location

Airport or City:

Trip Planner

Search our weather history database for the weather conditions in past years. The results will help you decide how hot, cold, wet, or windy it might be!

Date:

Astronomy

Dec. 10, 2012 Rise Set
Actual Time 7:26 AM EST 4:11 PM EST
Civil Twilight 6:52 AM EST 4:46 PM EST
Nautical Twilight 6:14 AM EST 5:23 PM EST
Astronomical Twilight 5:38 AM EST 5:59 PM EST
Moon 4:00 AM EST (12/10) 2:04 PM EST (12/10)
Length of Visible Light 9h 54m
Length of Day
8h 45m
Waning Crescent, 10% of the Moon is Illuminated
Dec 10
Waning Crescent
Dec 13
New
Dec 20
First Quarter
Dec 28
Full
Jan 4
Last Quarter

Hourly Weather History & Observations

Time (EST) Temp. Windchill Dew Point Humidity Pressure Visibility Wind Dir Wind Speed Gust Speed Precip Events Conditions
12:00 AM 19.4 °F 7.2 °F 14.0 °F 80% 30.12 in 25.0 mi ENE 11.5 mph 20.7 mph N/A   Overcast
12:37 AM 19.4 °F 7.2 °F 15.8 °F 86% 30.10 in 2.5 mi NE 11.5 mph 21.9 mph N/A Snow Light Snow
1:00 AM 19.4 °F 5.5 °F 15.8 °F 86% 30.07 in 2.0 mi ENE 15.0 mph 24.2 mph N/A Snow Light Snow
2:00 AM 19.4 °F 5.0 °F 17.6 °F 93% 30.01 in 1.0 mi NE 16.1 mph 25.3 mph N/A Snow Light Snow
3:00 AM 21.2 °F 9.5 °F 17.6 °F 86% 29.97 in 1.5 mi NE 11.5 mph 23.0 mph N/A Snow Light Snow
4:00 AM 21.2 °F 8.3 °F 19.4 °F 93% 29.91 in 1.5 mi NE 13.8 mph 23.0 mph N/A Snow Light Snow
4:33 AM 23.0 °F 10.6 °F 21.2 °F 93% 29.87 in 1.5 mi ENE 13.8 mph 21.9 mph N/A Snow Light Freezing Drizzle
5:00 AM 23.0 °F 12.4 °F 21.2 °F 93% 29.85 in 1.5 mi NE 10.4 mph 21.9 mph N/A Snow Light Freezing Drizzle
5:50 AM 24.8 °F 14.6 °F 23.0 °F 93% 29.78 in 3.0 mi ENE 10.4 mph 21.9 mph N/A Rain , Snow Light Freezing Rain
6:00 AM 24.8 °F 14.0 °F 23.0 °F 93% 29.77 in 3.0 mi NE 11.5 mph 19.6 mph N/A Rain , Snow Light Freezing Rain
7:00 AM 26.6 °F 19.1 °F 24.8 °F 93% 29.72 in 5.0 mi NE 6.9 mph - N/A Rain Light Freezing Rain
8:00 AM 28.4 °F 18.5 °F 26.6 °F 93% 29.68 in 5.0 mi NE 11.5 mph 20.7 mph N/A Rain Light Freezing Rain
9:00 AM 28.4 °F 19.7 °F 28.4 °F 100% 29.63 in 5.0 mi NE 9.2 mph 19.6 mph N/A Rain Light Freezing Rain
10:00 AM 30.2 °F 21.3 °F 28.4 °F 93% 29.60 in 3.0 mi NE 10.4 mph - N/A Rain , Snow Light Freezing Rain
11:00 AM 30.2 °F 20.8 °F 28.4 °F 93% 29.57 in 3.0 mi NE 11.5 mph - N/A Rain Light Freezing Rain
11:28 AM 30.2 °F 21.9 °F 28.4 °F 93% 29.54 in 2.0 mi NE 9.2 mph - N/A Rain Light Freezing Rain
12:00 PM 28.4 °F 19.1 °F 28.4 °F 100% 29.53 in 2.5 mi ENE 10.4 mph - N/A Rain Light Freezing Rain
12:41 PM 30.2 °F 22.6 °F 28.4 °F 93% 29.51 in 3.0 mi NE 8.1 mph - N/A Rain Light Freezing Rain
1:00 PM 30.2 °F 22.6 °F 28.4 °F 93% 29.49 in 3.0 mi NE 8.1 mph - N/A Rain Light Freezing Rain
1:33 PM 30.2 °F 22.6 °F 28.4 °F 93% 29.49 in 2.0 mi NE 8.1 mph - N/A Rain Light Freezing Rain
2:00 PM 30.2 °F 25.4 °F 28.4 °F 93% 29.47 in 2.0 mi NE 4.6 mph - N/A Rain Light Freezing Rain
3:00 PM 30.2 °F 24.3 °F 30.2 °F 100% 29.48 in 3.0 mi ENE 5.8 mph - N/A Rain Light Freezing Rain
4:00 PM 30.2 °F - 30.2 °F 100% 29.50 in 3.0 mi NE 2.3 mph - N/A Rain Light Freezing Rain
5:00 PM 30.2 °F - 30.2 °F 100% 29.49 in 2.0 mi Calm Calm - N/A   Light Freezing Drizzle
5:26 PM 32.0 °F 24.8 °F 32.0 °F 100% 29.52 in 1.0 mi SSW 8.1 mph - N/A   Overcast
6:00 PM 33.8 °F 27.0 °F 32.0 °F 93% 29.53 in 1.0 mi WSW 8.1 mph - N/A   Overcast
6:41 PM 33.8 °F 26.4 °F 32.0 °F 93% 29.53 in 2.0 mi SW 9.2 mph - N/A   Overcast
7:00 PM 33.8 °F 25.8 °F 32.0 °F 93% 29.54 in 3.0 mi WSW 10.4 mph 18.4 mph N/A   Overcast
7:47 PM 33.8 °F 25.8 °F 32.0 °F 93% 29.54 in 15.0 mi WSW 10.4 mph 20.7 mph N/A   Overcast
8:00 PM 33.8 °F 27.0 °F 32.0 °F 93% 29.55 in 15.0 mi WSW 8.1 mph - N/A   Overcast
9:00 PM 33.8 °F 27.0 °F 30.2 °F 87% 29.55 in 25.0 mi West 8.1 mph - N/A   Overcast
10:00 PM 33.8 °F 27.7 °F 28.4 °F 81% 29.58 in 25.0 mi West 6.9 mph - N/A   Overcast
11:00 PM 32.0 °F 25.6 °F 28.4 °F 87% 29.60 in 25.0 mi WNW 6.9 mph - N/A   Mostly Cloudy